Location: Newark
(37.9800°N, 91.3000°W)
Time: 01:11:54
(UTC+00:00)

Envisat - Pass Details

Date: 26 October 2019
Orbit: 764 x 766 km, 98.1° (Epoch: 14 November)

Event Time Altitude Azimuth Distance (km) Brightness Sun altitude
Rises 00:21:55 0° 172° (S) 3,217 6.2 -13.9°
Reaches altitude 10° 00:24:13 10° 175° (S) 2,295 5.5 -14.3°
Maximum altitude 00:29:15 69° 259° (WSW) 822 3.3 -15.3°
Drops below altitude 10° 00:34:20 10° 342° (NNW) 2,309 5.7 -16.3°
Sets 00:36:39 0° 345° (NNW) 3,239 6.4 -16.8°
